Lapse_Rate
5.2 5.1 5.5 5.4 5.3 5.4 5.8 6.0 5.8 5.7 5.7 5.6 5.7 5.6 5.5 5.3 5.4 5.5 5.4 5.3 5.9 6.1 5.8 6.1 5.7 5.6 5.3
4.9 5.2 5.5 5.2 5.1 5.2 5.3 5.5 5.7 5.8 5.7 5.9 5.9 5.7 5.6 5.7 5.8 5.7 5.2 5.5 6.0 6.2 6.3 6.2 5.5 5.4 5.3
5.0 5.1 5.3 5.0 4.8 4.7 4.7 4.7 5.5 5.6 5.9 6.1 6.1 6.0 6.0 6.0 5.9 5.6 5.8 5.7 6.1 6.3 6.1 5.5 5.0 4.7 4.5
5.2 5.1 5.4 5.3 4.8 4.6 4.3 4.5 5.2 5.6 6.0 6.2 6.1 6.3 6.2 6.0 5.8 5.6 5.7 5.8 6.2 6.2 6.0 5.0 4.5 4.6 4.6
5.2 5.6 5.5 5.2 4.9 4.8 4.7 4.8 5.4 5.7 5.9 6.0 6.2 6.2 6.1 6.1 6.1 6.3 6.5 6.5 6.4 6.5 5.8 4.9 4.6 4.8 4.6
5.3 5.3 5.1 5.0 5.2 4.9 5.3 5.3 5.4 5.5 5.6 6.0 6.1 6.1 6.1 6.3 6.5 6.7 6.5 6.4 6.3 6.0 5.5 5.0 4.5 4.3 4.6
5.4 5.3 5.4 4.9 5.0 5.3 5.2 5.4 5.6 5.7 6.0 6.0 6.1 6.1 6.3 6.6 6.7 6.5 6.3 6.3 6.4 6.2 5.3 4.4 4.6 4.6 4.9
5.4 5.1 4.8 4.6 4.7 5.3 5.3 5.3 5.7 6.0 6.1 6.1 6.1 6.5 6.6 6.7 6.7 6.4 6.2 6.2 6.3 6.1 5.5 4.6 4.7 4.7 4.7
5.1 4.8 4.8 4.8 5.2 5.3 5.1 5.4 5.7 6.2 6.6 6.6 6.5 6.7 6.7 6.6 6.5 6.3 6.2 6.2 6.3 6.0 5.7 5.0 5.0 4.7 4.8
5.4 5.3 5.0 5.1 4.9 5.2 5.4 5.7 6.2 6.6 6.8 6.8 6.6 6.6 6.7 6.6 6.3 6.3 6.2 6.1 6.2 6.1 5.9 5.8 5.7 5.6 5.4
5.0 4.9 4.8 4.8 5.0 5.3 5.4 5.7 6.3 6.7 6.8 6.6 6.4 6.4 6.4 6.3 6.3 6.1 5.9 6.1 6.2 6.2 6.0 5.7 5.4 5.7 5.5
4.8 4.8 5.0 4.8 5.2 5.5 5.8 6.2 6.5 6.6 6.3 6.2 6.3 6.3 6.3 6.3 6.3 6.0 5.9 6.1 6.2 6.2 6.0 5.9 5.8 5.7 5.8
5.4 5.5 5.5 5.3 5.2 5.3 5.7 5.7 5.9 6.0 6.1 6.1 6.2 6.3 6.3 6.4 6.3 6.1 6.2 6.4 6.3 6.1 6.0 5.8 5.9 5.7 5.8
5.9 5.8 5.7 5.7 5.6 5.5 5.6 5.9 6.1 6.3 6.3 6.2 6.2 6.2 6.2 6.3 6.3 6.2 6.4 6.4 6.3 6.2 6.0 6.0 6.0 6.1 6.1
6.1 6.1 6.0 5.9 5.9 5.8 6.0 6.2 6.1 6.3 6.3 6.1 6.2 6.2 6.3 6.3 6.3 6.3 6.2 6.1 6.4 6.3 6.1 6.1 6.1 6.3 6.2
6.5 6.5 6.4 6.2 6.1 6.0 6.0 6.0 6.0 6.1 6.1 6.0 6.3 6.3 6.4 6.4 6.3 6.1 6.1 6.1 6.3 6.2 6.1 6.1 6.0 6.2 6.1
6.6 6.5 6.4 6.3 6.3 6.2 6.1 6.1 5.9 6.0 6.1 6.3 6.3 6.4 6.2 6.2 6.0 6.0 5.9 6.1 6.0 5.9 6.2 6.1 5.9 6.0 5.8
Wind_Speed
2 2 2 1 2 3 0 2 2 5 8 7 7 7 6 8 9 9 9 7 5 4 4 2 7 9 12
2 1 2 2 2 2 2 2 4 4 6 7 6 6 7 6 5 7 8 8 4 2 2 4 9 9 7
3 2 2 2 1 1 2 1 4 6 5 6 6 5 5 6 6 5 6 6 5 4 6 6 11 10 7
3 3 2 2 1 1 4 2 2 4 3 3 5 4 4 4 6 5 4 6 6 4 2 6 12 12 8
3 3 3 3 3 2 3 1 2 2 2 2 3 4 2 2 1 2 1 2 5 5 5 4 10 10 8
3 3 4 4 3 4 3 2 1 1 3 3 3 2 3 2 4 1 1 4 5 5 5 6 8 9 7
6 4 5 7 6 5 4 2 2 1 1 3 1 3 3 3 3 3 1 2 3 4 3 4 5 5 5
5 6 4 6 4 4 4 2 1 1 1 2 2 2 4 4 4 5 4 1 3 4 5 4 4 4 3
11 14 15 15 13 6 3 3 2 3 3 2 1 2 2 3 5 5 5 4 2 4 6 7 6 5 4
6 11 15 15 17 6 5 3 2 1 3 3 0 1 2 0 1 3 2 4 4 5 6 6 8 7 5
6 4 4 4 4 7 8 3 3 2 3 3 1 0 1 2 2 1 2 1 2 3 5 8 9 10 4
5 4 3 4 3 5 5 3 4 3 6 3 1 2 1 1 2 3 2 2 1 1 4 7 7 10 11
7 6 4 4 7 5 6 4 3 3 5 4 2 1 1 1 2 2 3 2 3 1 2 3 2 3 1
7 5 5 4 3 3 3 2 2 0 3 4 4 3 2 4 4 3 2 2 2 1 2 3 5 6 4
6 6 5 5 4 4 3 2 3 3 3 3 6 7 6 4 3 5 4 2 1 1 1 2 3 7 8
6 8 8 7 6 2 2 2 3 3 3 3 4 2 2 7 14 4 2 2 1 1 2 3 3 4 9
9 8 7 7 10 6 4 2 2 3 3 3 3 3 1 1 2 14 3 2 0 1 2 4 3 3 6
Wind_Direction
121 138 110 137 57 91 235 98 20 356 340 328 321 330 334 342 354 353 353 299 256 230 236 193 133 113 128
129 133 133 145 124 83 326 41 55 325 337 330 335 330 340 339 326 333 343 344 314 263 206 179 153 147 147
142 133 127 101 48 359 308 314 355 341 349 338 336 335 330 318 323 317 312 288 305 255 248 246 171 152 157
138 150 153 136 130 150 250 250 305 358 342 349 1 334 292 305 293 288 290 266 243 213 170 187 165 152 153
150 171 154 157 174 189 217 248 240 225 306 288 324 324 302 303 28 80 92 72 152 138 138 136 149 140 130
163 208 154 172 144 186 184 203 310 10 333 307 353 297 293 277 11 39 131 110 111 108 110 109 124 137 142
155 187 176 176 157 168 184 151 195 198 33 278 335 291 297 336 345 337 282 154 140 139 129 131 135 130 145
173 198 193 140 144 154 155 142 349 299 170 264 354 284 317 337 340 303 287 298 174 156 161 163 156 148 172
186 163 144 144 144 117 127 122 224 231 200 187 225 291 341 357 2 321 289 265 218 205 209 209 191 179 180
147 149 145 152 161 159 159 166 163 219 192 162 19 356 337 319 344 349 300 281 291 262 253 235 210 182 178
146 123 119 132 138 174 179 147 159 209 167 115 164 331 98 299 314 12 339 336 19 323 300 266 248 198 170
149 164 165 172 167 157 165 166 95 136 137 126 147 143 131 326 286 344 329 340 32 341 314 295 272 247 191
180 177 180 157 131 114 110 108 103 158 186 180 141 153 209 225 279 301 332 333 4 47 333 300 288 250 148
184 166 143 146 150 145 147 155 157 194 190 187 202 204 198 233 236 258 229 273 346 20 316 291 277 256 226
159 162 165 161 162 154 128 146 179 153 157 170 189 215 230 192 237 234 248 251 260 268 234 286 269 258 250
170 172 167 170 161 141 121 164 160 167 168 161 162 209 285 244 223 236 206 209 285 231 219 258 272 271 255
177 178 167 173 174 176 162 141 165 163 164 152 157 147 176 274 281 208 187 185 144 288 229 235 273 267 272